Strona główna
METAR-TAF:

METAR-TAF

Lotnisko :

Cranwell, Anglia

Szerokość geograficzna: 53-02N, Długość geograficzna: 000-30W, wysokość: 67 m

Aktualna obserwacja pogody

Raport powstał 57 minut temu, godzina 06:50 UTC
Wiatr 2 kt od południowy zachód
Temperatura 7°C
Wilgotność 76%
Ciśnienie 1030 hPa
Widzialność 10 km lub więcej

METAR: EGYD 070650Z AUTO 23002KT 9999 // NCD 07/03 Q1030

czas: 08:47 (07:47 UTC)


TAF: brakujący

Obserwacja i prognoza pogody dla ponad 4000 lotnisk (raport METAR i TAF).

Dostępne stacje oznaczono żółtymi i czerwonymi punktami na mapie.

Najedź kursorem aby zobaczyć nazwę stacji.

Kliknij aby zobaczyć obserwacje i prognozy pogody.

Aby zmienić mapę: kliknij na zielony przycisk z czarnym krzyżykiem, aby powiększyć; na zielony przycisk z myślnikiem, aby pomniejszyć; na zielone strzałki, aby przejść do map sąsiednich.


METAR-TAF: